TimeEDT,TemperatureF,Dew PointF,Humidity,Sea Level PressureIn,VisibilityMPH,Wind Direction,Wind SpeedMPH,Gust SpeedMPH,PrecipitationIn,Events,Conditions,WindDirDegrees,DateUTC
12:00 AM,55.4,41.0,58,29.97,25.0,NNW,6.9,-,N/A,,Clear,330,2013-10-03 04:00:00
1:00 AM,53.6,42.8,67,29.98,25.0,WSW,4.6,-,N/A,,Clear,240,2013-10-03 05:00:00
2:00 AM,53.6,42.8,67,30.00,25.0,WSW,4.6,-,N/A,,Clear,250,2013-10-03 06:00:00
3:00 AM,50.0,44.6,82,30.00,25.0,West,3.5,-,N/A,,Clear,270,2013-10-03 07:00:00
4:00 AM,44.6,42.8,93,30.02,25.0,WNW,2.3,-,N/A,,Clear,290,2013-10-03 08:00:00
5:00 AM,46.4,42.8,87,30.04,25.0,NNW,3.5,-,N/A,,Clear,330,2013-10-03 09:00:00
6:00 AM,48.2,42.8,82,30.05,25.0,Calm,Calm,-,N/A,,Clear,0,2013-10-03 10:00:00
7:00 AM,44.6,42.8,93,30.07,45.0,SSW,3.5,-,N/A,,Partly Cloudy,210,2013-10-03 11:00:00
8:00 AM,48.2,44.6,87,30.09,20.0,SW,2.3,-,N/A,,Partly Cloudy,230,2013-10-03 12:00:00
9:00 AM,53.6,46.4,77,30.12,45.0,WSW,4.6,-,N/A,,Mostly Cloudy,240,2013-10-03 13:00:00
10:00 AM,55.4,46.4,72,30.14,45.0,West,4.6,-,N/A,,Mostly Cloudy,260,2013-10-03 14:00:00
11:00 AM,59.0,48.2,67,30.13,45.0,SW,5.8,-,N/A,,Mostly Cloudy,230,2013-10-03 15:00:00
12:00 PM,64.4,48.2,56,30.12,45.0,SSW,9.2,-,N/A,,Mostly Cloudy,210,2013-10-03 16:00:00
1:00 PM,66.2,46.4,49,30.09,45.0,SSW,6.9,-,N/A,,Partly Cloudy,210,2013-10-03 17:00:00
2:00 PM,68.0,46.4,46,30.08,45.0,SSW,5.8,-,N/A,,Partly Cloudy,210,2013-10-03 18:00:00
3:00 PM,68.0,44.6,43,30.06,45.0,SW,6.9,-,N/A,,Partly Cloudy,220,2013-10-03 19:00:00
4:00 PM,69.8,44.6,40,30.05,45.0,WSW,8.1,-,N/A,,Partly Cloudy,240,2013-10-03 20:00:00
5:00 PM,68.0,46.4,46,30.05,45.0,SW,9.2,-,N/A,,Partly Cloudy,220,2013-10-03 21:00:00
6:00 PM,66.2,46.4,49,30.06,45.0,SW,3.5,-,N/A,,Partly Cloudy,230,2013-10-03 22:00:00
7:00 PM,60.8,46.4,59,30.06,25.0,SW,3.5,-,N/A,,Partly Cloudy,220,2013-10-03 23:00:00
8:00 PM,59.0,46.4,63,30.07,25.0,SW,3.5,-,N/A,,Mostly Cloudy,220,2013-10-04 00:00:00
9:00 PM,53.6,48.2,82,30.07,25.0,WSW,3.5,-,N/A,,Mostly Cloudy,240,2013-10-04 01:00:00
10:00 PM,57.2,48.2,72,30.07,25.0,West,4.6,-,N/A,,Mostly Cloudy,280,2013-10-04 02:00:00
11:00 PM,57.2,50.0,77,30.06,25.0,West,3.5,-,N/A,,Mostly Cloudy,260,2013-10-04 03:00:00